Wind_Speed
18 18 18 17 16 15 14 14 13 13 13 13 14 15 17 20 22 24 23 23 23 24 23 23 23 22 21 21 22 23 24 24 24 25 26 27 28 29 29 30 30 30 30 30 30 30 31 31 31 31 31 30 29 28 26 25 25 24 23 22 21 21 21 21 20 20 20 20 19 18 17 16 15 14 13 12 12 11 10 10 9 8 7 7 7
17 18 17 16 15 13 12 14 15 14 14 15 16 16 16 17 19 21 22 22 23 23 23 23 23 23 22 23 23 23 25 25 25 26 28 29 30 29 29 30 31 31 31 31 30 30 30 31 32 33 33 32 31 30 29 28 27 26 25 24 23 23 22 22 22 21 21 20 19 18 18 17 16 15 15 14 13 13 13 12 11 10 9 9 8
16 17 15 15 14 10 9 12 13 12 10 8 9 10 11 13 16 17 18 20 21 23 23 24 25 24 25 25 25 24 25 26 26 27 27 29 31 31 29 30 31 32 32 32 32 31 30 31 32 33 34 34 33 33 31 30 28 28 27 26 25 24 24 24 23 22 22 20 19 19 18 17 17 16 16 15 15 15 15 14 13 13 12 11 11
14 14 14 15 13 8 7 8 9 8 5 4 5 5 6 9 12 14 15 17 18 20 22 24 25 25 26 26 26 25 26 27 28 27 27 26 27 29 29 29 31 32 33 33 33 32 31 32 32 33 34 34 35 34 33 32 30 30 29 28 27 26 26 25 25 24 23 22 20 19 19 18 18 17 17 17 17 17 17 17 16 15 15 14 13
12 12 11 12 12 9 8 9 9 9 5 4 4 4 4 6 8 11 13 15 17 19 19 20 21 22 23 24 24 25 26 27 27 28 28 26 25 27 27 28 29 31 33 34 35 35 34 33 33 33 33 34 35 35 35 34 32 32 31 30 30 29 28 27 26 26 25 24 22 21 20 20 19 19 19 19 19 19 19 19 19 18 18 17 16
12 10 7 7 9 8 9 11 13 13 10 6 3 4 4 5 6 8 10 12 15 17 19 19 20 20 20 21 22 24 25 27 27 27 28 27 27 28 27 26 28 30 32 34 36 37 36 35 33 33 32 33 34 35 36 35 34 34 33 32 31 31 30 29 29 28 27 26 24 23 22 22 21 21 21 21 21 21 21 21 21 21 21 20 19
10 9 7 8 8 8 8 9 12 14 11 7 4 4 4 5 6 6 8 9 11 13 15 17 19 20 21 21 21 21 23 25 25 25 26 27 28 28 27 26 27 30 32 34 36 37 37 35 33 32 31 31 32 33 35 36 35 35 34 34 33 32 32 31 31 30 29 28 27 26 25 24 23 23 23 23 22 22 23 23 23 23 23 23 22
10 9 9 9 8 9 12 10 11 11 8 5 4 4 4 5 5 6 7 8 9 11 12 13 16 18 20 21 21 21 22 23 24 25 25 26 28 28 27 25 26 29 31 33 35 36 37 36 33 32 30 30 30 31 33 34 35 36 36 35 34 33 33 33 32 31 30 30 29 28 27 26 25 25 25 25 25 25 25 25 26 26 25 25 24
10 9 9 10 8 11 14 11 8 8 6 5 5 5 5 5 5 6 7 8 9 10 11 11 14 15 17 19 21 23 23 23 24 25 26 27 27 28 26 25 25 27 30 32 34 35 36 37 34 32 31 30 30 31 32 33 34 36 36 35 35 34 34 34 33 32 32 31 31 30 29 29 28 28 27 27 28 28 27 27 27 27 26 27 26
10 9 9 9 8 10 13 11 9 8 7 8 8 8 8 7 6 7 8 9 9 10 10 11 13 15 16 18 20 22 23 23 21 20 22 24 25 26 25 24 24 25 27 29 32 34 35 37 36 34 32 31 30 30 31 32 33 35 36 36 35 35 35 35 35 34 33 32 31 31 31 30 30 30 29 28 29 29 27 26 25 26 26 26 27
9 8 7 7 8 10 12 12 10 8 8 10 10 10 10 9 9 9 9 10 10 11 10 11 12 14 15 15 16 20 22 22 19 17 18 21 22 24 24 24 24 24 26 28 30 33 35 36 37 36 35 33 31 31 31 31 32 34 35 35 35 35 36 36 36 36 35 33 32 32 32 31 31 31 30 29 29 29 28 27 26 26 26 26 26
8 7 6 7 9 10 9 10 10 10 11 12 11 11 11 11 11 11 11 12 12 12 12 12 13 14 13 12 12 16 18 18 18 18 20 20 20 22 23 24 24 23 24 26 28 30 33 35 37 37 37 35 33 32 32 31 31 33 34 35 35 36 37 37 37 37 37 36 35 34 32 32 32 31 30 30 30 29 29 29 28 28 27 27 27
8 7 7 8 9 9 9 10 11 12 13 13 13 13 13 13 13 13 12 12 12 12 13 14 15 14 13 11 10 10 11 13 14 17 20 20 19 20 21 22 23 23 23 24 25 27 30 33 35 37 38 37 37 36 34 32 31 32 33 34 35 36 37 38 38 38 39 39 38 37 35 33 33 32 31 30 30 30 30 30 30 30 29 28 28
9 9 8 8 9 9 10 11 12 13 13 14 15 14 14 14 15 14 13 13 13 13 14 15 15 15 14 13 10 9 10 11 12 14 17 19 19 19 20 21 22 23 23 24 24 25 28 30 33 37 38 37 38 39 37 35 33 32 32 33 34 35 37 38 39 38 38 39 39 38 36 35 35 33 31 31 31 31 31 32 32 31 30 29 28
9 9 9 9 9 10 10 11 12 13 14 15 15 16 16 16 16 15 15 15 15 15 15 15 15 15 16 15 14 13 13 13 14 15 17 19 20 21 21 22 23 23 24 25 24 25 27 28 30 35 37 37 39 40 39 38 37 36 35 35 35 35 36 37 37 36 36 37 38 37 36 35 35 33 32 32 32 32 32 32 32 31 30 29 28
9 10 9 10 10 11 11 12 13 14 15 15 16 16 16 17 17 17 17 17 17 17 17 17 15 15 17 17 17 16 15 15 17 18 20 21 22 22 22 23 23 24 24 25 25 25 27 28 29 31 34 36 39 40 41 41 41 40 39 39 38 38 37 36 35 36 36 36 36 36 35 35 35 33 32 32 32 32 32 32 32 31 29 29 28
9 9 10 10 10 11 12 13 13 15 16 16 17 17 17 18 19 19 19 19 19 19 18 19 18 16 17 19 19 19 18 18 19 20 21 22 22 23 23 23 23 24 25 25 26 26 27 29 29 30 31 34 35 35 38 41 42 42 41 41 41 41 38 36 35 35 35 36 36 35 34 34 33 32 32 32 32 32 32 31 31 30 29 29 28
11 11 11 11 11 12 12 13 14 15 16 17 17 18 18 19 19 20 20 21 21 21 20 21 20 17 18 21 21 21 22 22 21 21 22 23 23 23 23 24 24 25 26 26 26 27 28 28 29 29 31 32 32 31 33 35 37 39 40 40 40 40 39 38 37 36 34 35 36 35 33 32 31 31 32 32 32 32 32 31 30 30 29 29 27
13 12 12 12 12 13 13 14 14 15 15 16 16 17 18 18 19 20 20 21 22 22 22 23 22 20 22 23 23 22 22 23 23 23 23 24 24 24 23 24 24 25 26 27 27 27 27 27 27 27 28 29 30 31 32 33 34 35 37 38 38 38 38 38 38 37 35 35 36 35 33 33 32 31 31 31 32 32 32 31 30 30 29 28 27
13 13 13 13 13 13 13 14 14 14 14 15 15 16 17 17 18 19 20 21 22 22 22 23 23 23 24 25 24 24 22 23 24 24 24 24 24 25 25 24 24 25 25 27 28 28 26 26 27 27 27 28 29 30 32 32 31 32 34 37 39 39 37 35 36 37 36 35 35 34 34 34 34 32 31 32 32 32 32 32 31 30 30 30 28
13 13 13 12 12 12 13 13 14 14 14 15 15 16 16 16 17 18 18 19 20 21 21 22 23 24 25 24 24 24 24 24 25 24 24 24 25 25 25 24 24 24 24 26 27 26 25 25 26 26 27 28 29 30 30 29 28 29 32 34 36 38 36 33 33 34 35 36 35 36 36 34 34 34 32 33 33 33 32 33 33 32 32 32 30
13 13 12 12 11 11 11 12 13 13 14 14 15 15 15 15 16 17 17 18 19 19 20 21 22 23 24 24 24 24 25 25 25 25 25 25 25 26 26 25 24 23 23 24 25 25 25 25 25 25 27 27 27 28 28 27 27 27 31 34 34 35 36 35 34 33 33 34 36 37 38 35 35 36 35 35 35 34 34 34 34 34 33 32 31
13 13 12 12 11 10 10 10 11 11 12 12 13 13 13 14 14 15 15 16 17 18 19 20 21 22 23 23 23 24 24 25 25 25 25 25 26 26 25 24 23 23 23 23 24 25 26 26 25 25 25 25 24 24 25 25 27 27 29 33 34 34 34 35 36 37 36 36 35 35 36 37 38 38 37 36 36 35 36 35 35 35 35 34 33
13 13 12 12 11 10 9 9 9 10 10 10 10 11 11 12 13 13 14 15 15 16 17 18 19 20 21 21 22 21 21 22 22 23 23 23 24 24 24 23 23 22 23 23 24 25 27 27 27 26 26 25 24 24 24 24 25 26 26 28 31 32 33 34 36 38 39 37 35 33 34 37 38 38 37 36 36 37 38 37 36 37 37 36 36
11 13 12 11 10 10 9 9 9 9 9 9 9 9 10 11 11 12 13 14 14 15 15 16 17 18 19 19 19 19 19 19 19 20 20 21 21 21 21 22 22 21 21 22 23 24 25 26 27 28 28 28 27 26 25 25 24 25 25 27 29 31 33 35 36 38 39 39 38 36 36 36 36 37 37 36 36 37 37 37 36 37 37 37 36
10 12 12 11 10 9 9 9 9 10 9 9 9 9 9 9 10 11 12 12 13 13 14 14 15 16 16 16 17 16 16 17 17 17 17 18 18 18 19 19 20 19 19 20 22 22 23 24 25 27 28 29 30 28 27 26 25 24 25 27 30 33 33 33 35 37 38 38 39 39 39 38 37 39 39 39 40 39 38 37 36 36 37 38 37
10 11 11 10 9 8 8 8 8 9 9 9 9 9 9 9 9 10 10 11 11 11 12 12 13 13 14 14 14 14 14 14 15 15 15 15 16 16 16 16 16 17 17 17 18 19 19 20 21 23 25 26 28 28 27 26 26 25 24 24 27 32 33 32 33 36 38 38 39 40 40 40 40 41 44 46 46 45 43 41 40 39 40 41 40
10 11 11 10 8 7 7 7 7 7 8 8 9 9 9 9 9 9 10 10 11 11 11 11 12 12 12 12 12 13 13 13 14 14 14 14 14 14 14 14 13 13 13 14 15 15 15 15 16 18 19 21 22 23 24 24 25 25 24 24 25 28 31 33 34 36 37 39 40 41 41 41 42 43 45 47 49 50 49 48 46 46 45 45 44
10 10 10 9 9 8 8 8 8 8 9 9 9 9 9 9 10 10 10 11 11 11 12 11 12 11 11 11 12 12 12 13 13 14 14 14 13 13 13 13 12 11 11 11 11 12 12 12 13 13 15 16 17 18 20 21 23 23 24 24 24 25 27 30 32 34 36 37 39 40 41 42 43 44 44 46 48 49 50 50 49 49 48 47 47
11 11 10 10 10 10 10 10 10 11 11 11 11 11 11 11 11 11 11 11 12 12 12 12 12 12 12 11 12 12 12 12 12 13 13 13 13 13 13 13 12 12 11 11 11 11 11 11 11 11 12 12 13 15 16 18 20 21 22 23 23 24 25 27 28 30 31 32 34 36 38 40 42 43 44 45 46 47 48 49 49 48 48 48 47
13 13 12 12 12 12 12 12 12 12 13 13 13 13 13 13 13 12 12 12 12 12 13 13 13 14 14 13 13 13 13 12 12 12 13 13 13 13 13 13 13 13 12 12 12 12 12 11 11 11 11 11 12 13 14 15 17 18 19 20 21 23 24 25 26 26 26 27 28 29 32 35 39 41 43 44 45 46 47 48 48 48 48 49 48
14 15 15 14 14 13 13 14 14 14 13 13 12 12 12 12 12 12 12 13 13 13 13 13 14 14 15 15 15 15 15 14 14 14 14 14 14 14 14 14 14 14 14 13 13 13 13 13 13 13 13 12 12 13 14 15 16 17 18 19 20 20 22 23 24 25 25 25 26 26 27 29 32 35 39 42 44 45 46 47 47 47 48 48 47
16 16 17 16 15 14 14 13 13 13 13 12 11 10 10 10 10 11 12 13 13 14 14 13 14 14 15 15 16 16 16 15 15 14 14 13 13 13 14 14 14 14 14 14 14 14 14 14 15 15 15 15 14 15 16 16 17 18 19 19 20 20 21 22 23 24 25 25 25 26 26 26 27 28 31 34 38 40 42 43 44 46 46 45 43
19 18 18 17 16 16 15 15 14 14 14 13 13 12 11 10 11 11 11 12 13 14 14 14 15 15 15 16 17 17 17 16 15 14 13 12 11 11 11 11 12 12 13 13 14 14 14 15 16 17 18 18 17 17 18 18 19 19 20 21 21 22 23 23 24 24 25 25 26 26 26 27 26 26 26 27 29 32 34 36 38 40 41 40 39
21 21 20 20 19 17 16 16 15 15 15 16 16 15 15 15 15 14 13 13 14 15 15 16 17 18 18 18 19 19 19 18 17 15 14 14 13 13 12 12 12 12 12 13 14 15 15 16 16 17 18 19 19 19 20 20 21 22 22 22 23 24 24 25 26 26 26 26 27 27 28 28 28 28 27 27 26 27 28 29 31 33 34 35 35
23 23 22 21 21 19 18 18 18 18 17 18 18 18 18 18 18 17 16 16 17 18 19 20 20 20 21 21 21 21 22 21 20 20 19 18 17 17 16 15 15 14 14 14 15 15 16 17 18 18 18 19 19 19 20 21 22 23 24 25 25 26 26 27 27 28 28 28 28 29 29 30 31 31 30 29 29 28 28 28 28 29 29 30 31
24 25 24 23 22 21 21 21 21 20 20 21 21 20 20 20 20 20 19 19 20 21 23 25 25 25 24 24 24 24 24 25 24 24 24 24 23 22 20 19 18 18 18 17 17 17 18 19 20 20 20 20 20 20 20 22 23 24 25 26 26 27 29 29 30 30 30 31 31 31 31 32 32 32 33 33 32 32 31 31 31 30 30 30 31
27 27 26 26 25 24 25 25 23 23 24 25 24 24 24 24 23 23 23 23 22 22 23 24 24 23 23 23 23 24 24 25 26 27 27 27 27 26 25 23 23 22 22 21 20 20 20 21 21 21 21 21 20 20 20 21 22 24 26 27 27 28 29 31 32 32 32 33 33 34 34 35 35 35 35 35 35 35 35 34 34 34 34 34 34
29 29 27 26 27 27 27 27 27 27 27 27 26 26 26 26 26 26 26 26 26 25 23 22 20 20 21 22 24 25 24 24 25 26 27 28 29 29 28 27 27 27 26 25 24 24 23 22 22 22 22 22 22 23 23 23 24 25 26 28 30 30 30 31 32 33 34 34 35 35 36 37 37 37 37 38 38 38 37 37 37 38 38 37 37
28 30 29 26 26 28 27 28 29 29 29 28 26 25 25 26 27 28 28 28 29 28 27 26 25 25 25 25 26 26 26 26 25 26 27 29 30 30 30 31 31 31 31 31 30 29 27 26 25 25 25 25 25 26 28 28 29 29 29 29 31 32 33 33 34 34 34 35 36 37 38 38 38 39 40 40 40 40 40 40 40 40 40 41 41
27 30 31 26 25 26 26 24 24 23 24 26 26 27 28 28 30 31 32 31 31 31 32 31 31 30 30 30 29 29 29 29 29 29 30 31 32 33 34 35 36 37 37 36 36 35 34 32 32 31 31 30 30 31 32 34 34 34 34 33 33 33 34 35 36 37 37 36 37 38 39 40 40 40 41 41 42 42 42 42 42 42 42 42 43
29 29 30 28 27 28 27 25 24 23 24 26 28 30 31 32 33 34 34 33 32 32 33 33 33 33 33 33 33 33 34 33 33 33 34 35 36 37 38 38 40 41 41 41 40 40 39 38 38 38 38 38 38 38 39 39 39 39 38 37 37 36 36 36 38 40 41 40 39 39 41 42 42 42 43 43 43 44 44 43 43 43 43 44 44
31 29 30 30 31 32 31 29 29 29 30 31 32 33 33 34 35 35 35 35 35 35 35 35 36 36 37 37 37 37 37 37 37 38 38 38 39 40 40 40 41 43 44 44 44 44 43 43 43 43 43 43 44 45 45 44 43 43 42 41 40 40 39 39 40 41 44 44 42 41 43 45 45 44 45 45 45 46 46 45 45 44 44 45 45
36 35 35 35 35 34 33 32 33 33 33 33 34 35 36 37 37 38 38 39 40 41 41 41 41 40 41 41 41 40 40 39 40 40 39 40 41 41 40 40 41 42 44 44 45 45 45 45 46 46 46 47 47 48 48 47 46 45 45 45 44 43 43 43 42 43 46 47 46 44 43 46 47 47 46 47 48 48 47 47 47 47 46 46 46
41 42 42 42 39 37 37 37 36 35 34 34 35 36 38 39 39 40 41 42 43 44 45 46 45 43 43 43 43 42 41 41 41 40 39 42 44 44 43 43 43 44 45 45 45 45 45 45 46 47 47 48 48 49 49 48 48 47 46 46 46 46 46 46 46 46 48 49 50 48 46 47 49 48 48 49 50 50 49 49 49 49 48 48 48
42 42 42 41 40 39 40 39 38 37 37 38 39 40 41 42 42 42 43 44 45 46 47 47 47 46 45 45 45 45 44 44 44 43 43 43 45 46 45 45 45 45 46 46 47 48 48 49 49 49 49 48 48 48 48 48 47 47 46 46 47 48 48 48 49 49 50 51 52 51 49 49 50 50 49 51 52 52 51 51 51 51 50 50 50
42 42 42 41 41 41 40 40 39 40 41 42 43 44 45 44 44 44 44 44 45 45 46 47 48 48 47 48 48 48 48 48 48 48 47 45 44 46 47 47 47 48 48 48 50 51 51 52 52 51 50 50 49 49 49 48 48 48 48 48 48 49 49 50 50 52 53 53 54 53 51 51 52 52 52 53 54 54 54 53 53 53 53 52 52
41 41 40 41 41 42 42 42 42 43 44 45 46 47 47 46 45 45 45 45 46 46 47 47 48 49 49 49 49 49 49 49 48 48 49 49 50 52 53 53 54 53 53 53 54 54 53 53 53 52 52 52 52 52 52 51 51 51 51 51 51 52 51 51 51 53 54 55 56 56 54 52 53 53 53 55 56 56 57 57 56 56 56 56 55
42 41 41 42 43 45 46 46 45 45 46 47 48 48 48 47 46 46 46 47 47 48 48 49 49 50 50 51 51 50 49 49 49 49 49 51 53 54 55 55 56 55 56 56 56 56 55 54 54 54 55 55 56 55 55 54 54 54 54 54 55 55 54 53 53 53 54 55 57 58 57 55 55 55 55 56 57 57 58 59 60 60 59 59 58
45 45 46 47 48 48 49 48 48 47 48 48 49 50 50 50 49 49 48 48 48 48 48 49 49 50 51 51 52 52 52 52 52 52 52 53 54 55 56 56 56 56 57 57 56 56 55 55 56 56 57 57 58 57 57 57 57 57 57 57 57 57 56 56 55 55 54 55 57 59 58 58 58 58 57 57 58 59 60 61 62 63 62 61 61
50 50 51 50 50 50 51 50 48 48 49 50 50 50 51 52 52 52 51 50 49 49 49 49 49 50 50 51 52 52 53 54 54 54 54 54 55 56 56 56 56 56 56 56 56 56 56 56 56 57 57 58 58 58 59 59 60 60 60 59 59 59 58 58 58 58 57 57 59 61 60 60 60 61 61 60 60 60 61 62 63 64 64 63 62
Wind_Direction
293 293 293 292 293 295 286 273 265 263 263 265 268 267 260 250 244 241 241 241 242 243 244 243 241 238 235 232 230 230 230 230 231 234 237 240 242 243 242 242 243 245 248 249 249 250 250 249 248 248 250 250 251 250 248 247 247 246 246 245 244 241 238 235 233 233 235 236 238 240 244 247 251 254 256 260 264 267 272 276 281 287 294 300 306
290 291 296 300 299 294 279 267 263 262 266 271 270 268 263 252 245 243 243 243 243 243 242 242 242 240 240 240 238 235 232 230 230 233 235 237 239 241 242 243 244 245 248 249 249 249 250 250 249 248 248 249 250 251 250 249 247 247 247 246 246 245 242 240 237 236 236 238 239 241 243 246 249 253 256 259 262 266 269 273 276 281 285 290 294
292 290 291 294 294 287 268 264 263 259 265 277 271 266 262 253 249 247 248 248 247 246 244 243 244 244 243 243 242 240 235 233 234 237 239 238 236 237 240 241 243 244 246 249 251 250 250 250 249 248 248 248 249 250 250 250 249 249 248 247 247 246 245 244 243 241 239 240 240 241 243 246 248 251 255 259 263 266 268 271 274 277 280 283 286
301 294 288 283 282 279 262 262 253 233 241 292 288 275 263 255 255 255 255 253 250 247 246 246 248 248 249 247 245 243 239 237 237 240 244 243 238 237 239 240 241 242 244 247 249 250 249 249 248 248 247 248 248 248 249 249 249 249 249 248 247 247 247 247 246 245 243 242 241 241 242 245 248 251 255 259 262 265 269 272 274 275 277 278 280
303 304 299 283 275 270 259 255 238 231 263 315 307 285 273 266 266 266 264 259 254 249 247 247 249 250 250 250 249 248 244 242 241 242 244 245 242 241 241 242 244 243 244 245 247 247 247 247 247 248 248 248 247 247 247 248 248 248 249 249 248 248 248 248 248 247 245 244 243 242 242 244 247 251 255 259 262 266 269 272 274 275 276 277 278
296 300 311 293 273 262 255 254 248 253 273 301 315 295 282 278 273 274 273 267 260 254 249 249 251 253 253 252 252 253 252 249 246 245 245 245 245 245 243 242 243 245 245 246 246 246 246 246 247 249 249 249 249 248 247 247 247 247 248 249 249 249 248 249 249 249 248 247 246 245 245 246 248 251 254 257 262 266 269 271 274 275 276 277 278
285 289 297 289 273 253 237 237 241 249 263 276 290 284 274 271 260 263 269 269 266 259 254 252 253 256 257 257 257 258 259 257 253 249 247 247 246 246 246 243 241 243 244 246 247 246 247 247 248 249 250 250 250 250 249 248 248 248 248 249 250 250 250 251 251 251 251 250 250 249 249 249 249 252 254 257 261 265 269 272 273 274 275 276 277
280 284 289 285 279 249 221 209 217 229 243 256 261 259 260 258 252 252 253 255 260 260 258 257 258 259 260 261 261 261 259 259 256 253 251 250 247 245 246 246 244 243 243 245 247 247 246 246 247 249 250 250 249 249 249 248 248 248 249 250 251 252 253 254 254 254 254 254 254 253 252 252 251 254 257 261 263 266 269 271 273 274 274 275 276
285 285 287 284 283 255 230 218 212 213 221 226 228 241 245 243 249 251 246 247 250 254 257 257 260 262 261 261 260 258 254 252 251 253 255 251 246 244 244 246 245 245 245 246 248 247 246 245 246 247 249 250 249 249 249 248 247 247 249 250 252 253 255 256 257 257 257 257 257 256 255 254 253 255 259 263 266 268 269 270 271 272 273 273 275
294 292 290 281 273 258 241 232 224 218 223 225 223 231 238 240 243 244 246 249 249 250 251 254 258 259 259 261 262 259 254 250 247 249 255 249 242 242 242 242 244 246 247 247 248 247 245 243 243 245 247 249 249 250 251 249 248 248 249 250 251 253 255 256 258 259 259 259 259 258 258 257 256 257 260 264 267 269 270 271 271 272 272 273 274
293 292 287 277 264 253 237 227 226 225 226 228 228 229 233 237 237 238 243 247 250 252 253 256 259 259 260 263 267 262 252 248 245 240 245 241 236 239 239 239 242 245 248 248 247 247 244 241 241 243 246 248 249 250 250 250 249 249 249 250 251 253 254 255 256 257 258 259 259 259 259 259 259 261 262 264 267 268 270 270 271 272 273 273 273
286 283 274 267 262 259 248 236 232 229 225 229 235 235 235 237 236 236 240 244 249 254 254 257 259 258 260 264 274 266 244 238 237 229 231 234 234 239 241 240 242 245 248 247 247 247 245 242 240 241 244 246 248 248 249 249 249 249 250 250 250 252 253 254 255 255 256 257 259 260 260 261 262 264 264 265 265 266 267 268 269 271 273 274 273
286 277 265 258 252 249 243 234 229 225 225 230 236 239 241 243 243 241 241 243 248 253 253 254 256 254 254 262 281 270 237 229 229 220 223 230 232 237 241 243 244 245 247 246 246 247 246 244 241 240 243 245 247 247 247 247 248 250 251 251 251 251 252 254 255 255 255 256 258 261 262 262 263 265 264 264 264 264 265 266 268 270 271 273 272
285 279 271 265 255 245 235 228 226 225 227 231 235 240 244 245 248 250 250 249 249 254 256 254 256 257 255 259 272 268 245 238 233 223 223 227 231 235 239 242 243 245 247 246 246 247 247 245 242 241 243 246 248 248 247 247 248 249 250 252 253 252 252 254 256 257 257 257 258 260 261 261 262 264 263 263 263 263 264 265 266 267 269 270 271
275 274 272 269 264 257 249 240 234 232 233 235 237 241 245 247 250 253 254 254 253 257 260 258 255 257 257 254 258 260 253 247 243 238 235 235 237 240 241 241 241 242 245 247 247 247 248 247 245 243 244 246 248 248 247 247 248 247 247 248 250 252 253 254 257 259 259 259 258 258 259 259 261 262 262 262 262 263 264 265 265 266 266 267 268
267 268 267 265 262 258 257 253 248 246 245 244 245 246 248 250 252 253 254 254 255 256 260 262 254 252 256 253 254 256 254 252 250 247 246 244 244 245 245 244 241 240 241 245 247 247 248 248 245 244 244 246 249 250 248 247 247 247 247 247 247 249 251 253 256 258 259 260 258 257 257 257 258 260 261 261 262 263 264 264 265 265 265 266 268
254 258 257 254 253 252 253 253 251 251 251 251 251 251 252 252 252 253 252 252 253 253 255 259 254 252 258 255 250 251 251 251 251 251 252 252 251 250 250 250 247 244 242 244 246 246 247 246 244 242 242 245 250 252 251 250 249 249 249 251 250 249 251 253 255 258 260 261 259 257 256 257 258 259 260 260 261 262 263 263 264 265 265 266 267
246 243 244 245 245 245 245 245 246 246 248 248 248 249 249 248 249 250 250 250 251 251 251 254 253 251 252 249 247 249 250 250 251 255 257 259 259 256 255 255 254 251 248 247 247 247 246 247 247 246 245 247 251 252 252 253 254 253 253 253 252 250 250 251 253 255 258 260 261 259 258 258 258 258 259 259 260 262 263 263 264 265 265 266 267
256 246 242 242 242 243 244 243 245 246 247 249 249 250 249 249 249 249 249 248 249 249 249 250 251 249 247 246 248 250 251 252 253 256 258 260 261 259 258 258 258 256 253 252 251 249 248 249 252 253 252 252 252 251 251 253 256 257 255 254 252 250 249 249 249 251 253 255 258 259 258 259 258 257 257 258 259 261 262 263 264 265 265 266 266
265 257 251 248 247 249 251 253 254 254 256 257 257 257 256 254 253 251 250 248 248 249 250 251 251 250 250 250 251 251 252 255 255 256 258 259 260 260 260 260 260 259 257 255 254 251 250 250 253 254 254 253 251 250 251 252 255 257 255 252 250 249 249 251 250 250 251 252 254 256 256 256 257 258 257 256 257 258 260 262 262 262 263 263 264
268 263 258 253 252 253 256 260 262 263 264 264 264 263 260 258 256 254 252 251 251 252 252 253 253 253 254 254 255 256 256 257 258 258 260 261 261 261 262 261 260 260 258 254 252 251 249 248 249 250 252 253 253 252 251 250 251 254 254 253 253 249 246 247 250 250 251 251 252 251 250 251 254 256 256 255 256 257 259 261 260 259 261 263 263
268 261 258 253 252 254 256 258 262 265 267 266 265 264 262 261 259 258 256 255 255 255 255 255 256 256 258 258 258 258 258 259 260 259 259 260 261 261 262 261 260 260 259 253 249 246 246 245 246 249 251 250 250 251 252 250 246 247 251 253 254 251 245 245 248 250 250 249 249 249 248 249 250 251 254 254 255 256 256 258 260 260 262 262 262
266 257 251 248 245 246 250 253 257 260 262 264 265 265 263 262 261 260 258 257 256 256 256 256 257 257 259 260 259 259 260 262 263 262 262 262 262 263 263 262 261 261 260 255 247 244 243 244 247 250 250 246 245 249 253 253 246 241 245 251 254 253 250 247 246 247 247 246 250 253 251 250 250 249 251 253 253 253 253 255 259 259 259 260 260
263 255 247 243 241 240 243 247 251 255 258 261 263 264 263 261 260 260 258 257 256 256 256 255 256 256 258 260 262 262 262 263 263 264 264 265 265 265 265 263 262 261 261 258 252 247 245 244 246 247 246 244 244 249 255 258 254 245 240 244 251 254 254 252 249 248 247 246 250 254 250 249 251 250 251 254 254 253 253 253 256 257 258 260 261
262 255 246 241 240 239 240 243 246 250 254 257 260 261 261 260 258 258 257 258 257 256 256 255 256 257 259 262 264 264 264 264 263 264 264 265 265 266 265 264 262 261 260 259 257 254 250 248 247 246 246 246 248 252 256 258 258 253 241 236 241 248 253 255 254 251 250 249 250 251 248 246 249 251 252 253 253 252 252 252 253 256 256 258 260
266 258 249 241 240 241 243 246 249 252 253 255 257 259 260 262 262 262 261 260 260 261 260 260 260 261 263 265 266 266 265 264 263 262 263 263 264 264 263 263 262 261 258 257 257 256 254 251 250 249 249 250 252 255 255 253 253 254 248 241 240 242 247 253 254 252 250 249 249 249 250 249 249 249 250 251 252 252 253 252 253 255 256 257 258
272 264 252 242 238 242 247 252 255 257 259 259 257 256 256 260 265 270 272 270 271 271 271 271 270 268 267 267 266 264 262 260 259 258 258 258 260 261 261 260 260 259 256 254 253 254 254 253 252 252 253 254 255 255 254 251 250 251 251 248 244 242 244 248 251 249 246 245 245 246 250 254 253 251 250 252 254 256 255 253 254 257 259 260 260
274 269 262 251 245 247 250 253 254 255 258 261 262 262 260 260 263 268 275 278 281 283 284 284 283 281 278 274 271 268 264 261 259 258 257 256 257 258 259 259 257 256 255 253 253 252 252 253 251 251 253 253 254 254 253 251 251 251 250 250 248 245 245 247 250 250 248 247 248 250 254 257 258 256 253 253 255 257 257 256 256 258 261 262 262
273 271 269 263 255 255 256 256 255 252 252 255 258 262 266 269 272 274 277 280 283 285 286 286 287 286 285 282 278 275 273 270 268 267 265 262 261 261 261 261 258 256 253 251 253 252 250 250 250 250 250 251 251 251 251 251 251 251 251 251 252 251 250 251 252 253 253 253 254 256 257 258 259 259 257 255 255 256 257 257 258 259 260 261 261
273 271 269 266 260 259 260 261 261 259 259 260 258 257 258 260 264 270 276 281 284 285 284 284 283 281 279 277 275 274 274 273 272 271 271 270 267 265 263 263 262 258 254 250 250 251 251 250 251 251 251 251 252 250 250 251 251 252 253 253 254 254 254 255 255 255 254 254 254 255 256 257 257 258 257 256 255 255 256 257 257 258 259 259 259
268 268 266 265 264 264 266 265 265 265 267 271 271 268 264 260 258 258 262 268 274 280 283 284 285 283 281 278 276 274 272 272 272 271 271 272 272 270 267 265 264 263 260 256 254 254 255 256 258 259 257 256 257 255 253 253 254 254 254 255 255 255 256 257 258 259 259 259 258 258 258 258 258 257 256 256 256 255 255 255 256 257 258 258 257
266 267 265 264 264 266 270 271 271 270 272 278 284 284 281 276 270 266 264 264 266 271 276 282 286 287 286 283 280 279 277 276 275 274 275 275 276 276 274 272 271 270 270 268 265 263 261 262 264 266 267 266 266 267 265 263 262 261 260 258 256 256 257 258 259 261 263 264 264 264 263 263 262 259 256 255 254 254 253 253 253 254 255 256 255
266 265 264 263 261 262 265 269 273 273 273 273 274 277 280 285 286 284 282 279 274 272 273 277 282 286 287 286 283 281 279 278 276 275 273 272 273 274 276 277 277 277 278 278 278 277 274 272 271 271 272 272 272 273 273 273 272 271 271 269 266 263 261 261 261 262 264 266 268 268 269 270 270 267 262 258 256 255 254 253 252 252 252 251 251
265 262 260 258 257 259 261 264 268 271 270 266 262 264 270 282 290 291 291 293 290 285 282 283 285 286 286 287 287 286 283 281 278 276 273 269 267 267 268 271 274 276 277 277 277 278 277 275 273 273 274 274 275 276 276 276 275 274 274 274 274 272 270 268 266 265 266 268 270 272 274 275 276 276 274 269 264 261 258 255 252 250 248 247 247
265 262 259 254 252 253 255 258 263 265 266 264 263 266 272 283 290 288 286 294 298 294 291 291 291 289 286 284 284 285 282 280 277 273 270 266 263 263 262 263 265 267 270 272 273 274 274 272 271 272 273 273 274 276 278 279 279 278 276 273 272 272 272 272 271 270 270 270 272 273 274 275 276 276 277 276 274 271 268 263 257 252 248 247 248
265 265 263 258 253 253 255 256 256 257 260 261 263 267 272 280 286 285 284 290 296 296 294 292 290 289 286 281 278 278 276 275 274 273 272 269 267 266 265 263 263 264 266 269 272 275 278 277 275 274 275 274 274 276 278 280 280 281 280 278 276 273 271 269 269 270 270 270 270 271 272 273 274 275 276 276 275 274 272 271 267 262 257 255 254
262 264 262 256 253 257 262 262 259 258 259 260 262 267 271 275 277 276 277 281 288 294 296 292 286 283 283 277 273 273 272 271 270 270 271 271 271 270 268 267 267 265 264 265 269 273 276 277 277 277 276 276 276 277 280 281 282 282 282 281 280 278 276 273 270 269 269 268 267 267 268 269 270 272 273 274 274 274 273 272 270 268 265 263 262
259 258 255 252 254 259 263 263 262 262 262 261 262 266 271 274 276 275 277 281 286 290 293 292 285 281 280 275 273 274 275 274 271 269 269 268 268 269 269 270 270 269 266 266 269 272 274 274 275 276 277 278 279 279 280 283 286 287 287 286 284 282 281 279 276 273 271 270 269 267 267 266 266 267 268 270 271 272 272 273 272 270 268 266 265
259 253 249 251 253 254 257 262 263 262 262 261 261 264 268 271 274 276 280 284 285 284 283 282 280 281 280 278 278 279 280 279 277 274 272 269 267 265 265 266 268 269 268 268 270 273 274 274 274 276 278 280 282 283 283 284 286 288 289 289 289 288 286 284 282 280 277 275 274 272 270 269 268 267 266 267 267 268 269 270 271 271 270 269 268
262 248 243 250 254 250 250 258 264 264 263 260 260 265 269 270 272 275 277 279 279 278 275 273 274 276 277 276 277 277 278 279 279 278 276 273 271 268 266 266 267 268 268 269 270 272 273 272 271 272 275 276 279 281 284 285 286 286 286 286 286 287 288 287 286 284 283 281 279 277 275 273 272 271 269 268 267 267 268 268 269 269 269 269 269
257 242 238 244 246 243 245 253 262 268 266 263 265 269 271 271 271 273 275 275 274 274 274 274 273 272 272 272 271 271 273 274 276 276 275 275 274 273 271 271 270 270 269 268 269 270 271 271 269 269 270 272 275 278 281 283 284 284 283 282 281 280 281 282 284 284 284 283 283 282 280 278 276 274 273 271 270 269 268 268 268 268 268 268 268
249 247 249 251 245 245 253 260 264 272 274 272 272 273 273 272 272 273 274 274 273 272 273 274 274 273 271 270 269 268 269 270 271 272 272 273 273 272 272 272 271 270 269 267 267 268 269 270 269 269 269 271 274 278 280 281 282 281 280 279 278 276 275 274 276 279 281 281 281 282 282 281 280 278 276 274 272 270 269 268 267 267 268 268 267
252 253 257 259 257 258 264 267 270 275 278 276 274 273 272 272 271 271 272 273 274 275 275 276 275 274 273 272 271 271 271 271 271 271 272 272 272 272 272 271 270 269 268 267 266 266 267 268 269 269 269 271 275 279 280 280 280 279 278 277 276 274 273 271 270 272 275 277 277 277 277 278 280 280 278 276 274 272 270 269 267 266 266 266 266
260 258 258 262 266 266 267 270 274 278 279 276 275 274 273 271 271 271 272 273 274 276 278 279 278 277 276 275 276 276 275 274 273 273 274 275 275 273 272 271 269 269 269 268 268 267 267 267 268 268 269 271 275 277 278 278 278 277 276 276 275 274 272 271 269 268 269 272 274 273 272 273 275 276 275 274 274 273 271 270 269 267 266 265 265
265 264 263 264 266 266 267 271 276 278 278 277 277 278 277 276 275 274 273 273 273 275 277 278 279 279 278 277 277 277 275 275 275 274 274 275 275 274 272 270 270 271 271 271 271 269 268 268 268 269 271 273 274 275 276 276 276 275 275 275 274 274 273 272 270 268 266 268 270 271 270 268 270 271 270 269 270 271 271 270 269 268 267 266 265
265 265 263 263 264 264 267 272 276 278 279 280 281 281 280 280 278 276 274 273 274 275 276 277 278 278 277 277 276 276 275 275 275 276 276 275 275 274 273 272 271 272 272 272 271 271 270 270 271 272 273 274 274 274 274 274 274 274 273 273 273 273 273 273 272 269 267 267 268 269 267 264 264 267 267 266 266 267 267 267 267 267 266 265 265
264 264 264 265 266 267 270 275 279 282 284 284 284 283 282 280 278 277 276 275 275 275 275 276 276 276 276 276 276 276 276 276 275 276 276 275 274 273 274 274 274 273 273 272 271 271 272 273 273 274 275 275 274 273 272 272 272 272 272 273 272 272 272 272 271 269 269 268 268 268 266 262 261 263 264 263 263 264 264 264 263 264 264 264 263
265 265 267 269 271 273 276 279 283 285 286 286 285 284 282 280 277 276 276 276 276 276 275 275 276 276 276 276 276 276 277 277 276 275 274 273 272 272 274 275 275 274 273 273 273 273 273 273 273 274 274 273 272 272 272 271 271 272 272 272 272 271 271 271 269 267 268 268 268 268 267 264 261 261 261 260 260 261 262 263 262 262 261 261 261
269 269 271 274 276 277 277 279 280 283 285 286 286 285 283 281 278 276 274 274 274 274 274 274 274 275 276 276 277 277 277 277 277 276 275 274 273 274 275 275 275 275 274 274 273 273 273 272 271 271 271 271 271 272 272 272 272 272 273 272 272 271 271 270 268 266 265 266 266 267 267 266 264 263 261 260 259 259 259 260 261 261 260 260 260
272 273 275 277 277 277 277 277 278 282 286 287 287 286 285 283 281 279 277 276 275 274 274 274 274 274 274 275 276 277 277 278 278 277 277 276 276 276 276 276 275 275 275 274 274 273 272 271 270 270 270 270 271 271 272 272 272 272 272 271 270 270 270 269 268 266 264 264 264 265 266 266 266 265 264 262 262 261 260 259 259 259 259 259 259
272 274 276 277 278 278 278 277 279 284 288 288 288 287 285 283 282 281 280 279 279 278 278 278 277 277 276 276 276 276 277 277 278 278 278 277 277 277 277 276 276 275 275 274 274 273 272 271 270 269 269 269 269 270 270 270 270 270 270 269 268 268 267 267 266 266 265 264 264 265 265 266 266 267 266 265 263 263 262 260 259 258 257 257 257
Height
5787 5786 5786 5785 5785 5784 5785 5786 5787 5788 5788 5789 5789 5789 5789 5790 5790 5791 5792 5793 5794 5794 5795 5796 5797 5798 5800 5802 5802 5803 5804 5804 5805 5806 5807 5808 5809 5810 5811 5813 5814 5815 5815 5816 5817 5818 5819 5821 5822 5824 5824 5825 5826 5827 5828 5829 5830 5830 5831 5831 5832 5832 5833 5833 5834 5835 5836 5837 5838 5839 5839 5840 5840 5841 5841 5841 5842 5842 5843 5843 5843 5843 5844 5844 5844
5786 5785 5785 5785 5784 5784 5784 5785 5786 5786 5786 5787 5788 5788 5788 5788 5789 5790 5790 5791 5791 5792 5793 5794 5794 5796 5797 5799 5800 5801 5802 5802 5802 5803 5804 5805 5806 5807 5808 5810 5811 5812 5813 5813 5814 5816 5817 5818 5819 5821 5822 5823 5824 5825 5826 5827 5828 5828 5829 5830 5830 5831 5831 5832 5833 5834 5835 5836 5837 5838 5838 5839 5839 5840 5840 5840 5841 5841 5841 5842 5842 5842 5843 5843 5843
5785 5785 5784 5784 5784 5784 5784 5784 5785 5785 5785 5785 5785 5786 5786 5786 5787 5788 5788 5789 5790 5790 5791 5792 5792 5793 5795 5796 5797 5799 5800 5800 5800 5801 5801 5802 5803 5804 5805 5806 5808 5809 5810 5811 5812 5813 5814 5815 5816 5818 5819 5820 5822 5823 5824 5825 5826 5826 5827 5828 5828 5829 5830 5830 5831 5832 5833 5834 5835 5836 5837 5838 5838 5839 5839 5839 5840 5840 5840 5841 5841 5841 5841 5842 5842
5783 5783 5783 5783 5783 5783 5783 5784 5784 5784 5784 5784 5784 5784 5784 5785 5785 5785 5786 5787 5788 5788 5789 5790 5791 5792 5792 5793 5795 5796 5797 5798 5799 5799 5800 5800 5801 5801 5802 5803 5804 5805 5807 5808 5809 5810 5811 5812 5813 5814 5816 5817 5818 5820 5821 5822 5823 5824 5825 5826 5826 5827 5828 5828 5829 5830 5831 5833 5834 5835 5836 5837 5837 5838 5838 5838 5839 5839 5839 5839 5840 5840 5840 5840 5841
5780 5781 5781 5781 5782 5782 5783 5783 5783 5783 5783 5784 5784 5783 5783 5783 5783 5783 5784 5785 5785 5786 5787 5788 5789 5790 5790 5791 5792 5793 5795 5796 5797 5798 5798 5799 5799 5799 5799 5800 5801 5802 5803 5804 5806 5807 5808 5809 5810 5811 5813 5814 5815 5816 5818 5819 5820 5821 5822 5823 5824 5825 5826 5826 5827 5828 5830 5831 5832 5833 5834 5835 5836 5836 5837 5837 5837 5838 5838 5838 5838 5839 5839 5839 5839
5779 5779 5779 5779 5779 5780 5781 5781 5782 5782 5782 5782 5782 5782 5782 5782 5782 5782 5783 5783 5784 5784 5785 5786 5787 5788 5788 5789 5789 5790 5792 5793 5795 5796 5796 5797 5797 5796 5797 5798 5798 5799 5800 5801 5802 5803 5804 5806 5807 5808 5810 5811 5812 5813 5815 5816 5817 5818 5819 5820 5821 5822 5823 5824 5825 5826 5827 5829 5830 5831 5832 5833 5834 5835 5835 5835 5836 5836 5836 5837 5837 5837 5837 5838 5838
5777 5778 5778 5777 5777 5778 5778 5778 5779 5780 5780 5780 5780 5781 5781 5781 5781 5782 5782 5782 5782 5782 5782 5783 5784 5785 5785 5786 5787 5788 5789 5790 5792 5793 5794 5794 5794 5794 5794 5795 5796 5796 5797 5798 5799 5800 5801 5803 5804 5806 5807 5808 5809 5810 5812 5813 5814 5815 5816 5817 5818 5819 5821 5822 5823 5824 5825 5826 5828 5829 5830 5831 5832 5833 5833 5834 5834 5835 5835 5835 5835 5836 5836 5836 5836
5776 5776 5777 5776 5776 5776 5776 5775 5776 5777 5778 5778 5779 5779 5780 5781 5781 5780 5780 5780 5780 5781 5781 5781 5782 5783 5783 5784 5784 5785 5786 5787 5788 5789 5791 5791 5792 5792 5792 5793 5794 5794 5794 5795 5796 5797 5798 5800 5802 5803 5804 5805 5806 5807 5808 5810 5811 5812 5814 5815 5816 5817 5818 5820 5821 5822 5823 5824 5825 5827 5828 5829 5830 5830 5831 5831 5832 5833 5833 5833 5833 5834 5834 5834 5834
5775 5775 5775 5775 5774 5775 5775 5776 5775 5775 5776 5777 5777 5778 5779 5780 5780 5780 5779 5779 5779 5780 5779 5780 5780 5781 5781 5781 5782 5782 5783 5784 5785 5786 5787 5788 5789 5789 5790 5790 5791 5791 5792 5792 5793 5794 5795 5797 5799 5800 5801 5802 5803 5804 5805 5806 5808 5809 5810 5812 5813 5815 5816 5817 5818 5820 5821 5822 5823 5824 5825 5826 5827 5828 5828 5829 5829 5830 5830 5831 5831 5831 5832 5832 5832
5773 5774 5774 5773 5773 5773 5774 5775 5775 5774 5774 5775 5776 5777 5778 5779 5779 5779 5778 5778 5778 5778 5779 5779 5779 5779 5779 5779 5779 5779 5780 5781 5782 5783 5784 5784 5785 5786 5787 5788 5788 5789 5789 5790 5790 5791 5792 5793 5795 5797 5798 5799 5800 5801 5802 5803 5805 5806 5807 5809 5811 5812 5813 5814 5816 5817 5818 5819 5820 5821 5822 5823 5824 5825 5826 5826 5826 5827 5827 5828 5829 5829 5829 5829 5830
5772 5772 5772 5772 5771 5771 5772 5773 5773 5772 5773 5774 5775 5776 5777 5778 5778 5778 5777 5777 5776 5777 5777 5778 5778 5777 5777 5778 5778 5777 5777 5777 5779 5780 5780 5781 5782 5783 5784 5785 5785 5786 5786 5786 5787 5787 5788 5789 5791 5793 5794 5796 5798 5799 5800 5801 5802 5803 5804 5806 5807 5809 5810 5811 5812 5814 5815 5816 5817 5818 5819 5820 5821 5822 5823 5823 5823 5824 5824 5825 5825 5826 5827 5827 5827
5769 5770 5771 5771 5770 5770 5770 5770 5771 5771 5772 5773 5774 5775 5775 5776 5776 5776 5776 5775 5775 5775 5776 5776 5776 5776 5776 5776 5775 5774 5774 5775 5776 5777 5777 5778 5779 5780 5781 5782 5783 5783 5783 5783 5784 5784 5785 5786 5788 5790 5791 5793 5794 5796 5797 5798 5799 5800 5801 5802 5804 5805 5806 5807 5808 5810 5811 5812 5813 5815 5816 5817 5818 5819 5820 5820 5820 5821 5821 5822 5822 5823 5824 5824 5824
5767 5767 5768 5769 5769 5769 5769 5770 5770 5770 5771 5771 5772 5773 5773 5774 5774 5774 5774 5774 5774 5774 5775 5775 5775 5775 5775 5774 5773 5772 5773 5773 5774 5774 5775 5776 5777 5778 5779 5779 5780 5780 5780 5781 5781 5782 5782 5783 5785 5786 5788 5789 5790 5792 5793 5795 5796 5797 5798 5799 5800 5802 5802 5803 5804 5805 5807 5808 5810 5811 5813 5814 5815 5816 5816 5817 5817 5818 5818 5818 5819 5820 5820 5821 5821
5765 5765 5766 5767 5767 5768 5768 5768 5769 5769 5769 5770 5770 5771 5772 5772 5772 5772 5772 5773 5773 5773 5773 5774 5774 5774 5774 5773 5773 5772 5772 5772 5773 5773 5774 5774 5775 5776 5776 5777 5778 5778 5778 5778 5779 5780 5780 5780 5781 5782 5784 5786 5786 5787 5790 5792 5793 5794 5795 5796 5797 5798 5799 5799 5800 5801 5803 5805 5806 5808 5809 5810 5811 5812 5813 5813 5814 5814 5815 5815 5816 5816 5817 5818 5818
5762 5763 5763 5764 5764 5765 5766 5766 5767 5767 5768 5768 5769 5769 5769 5769 5770 5770 5770 5771 5771 5771 5772 5772 5772 5772 5772 5772 5771 5771 5771 5771 5772 5772 5773 5773 5773 5773 5774 5774 5775 5775 5775 5775 5776 5777 5777 5777 5779 5779 5780 5782 5782 5783 5786 5787 5788 5789 5790 5791 5792 5793 5795 5796 5797 5798 5800 5801 5803 5804 5805 5806 5807 5809 5809 5810 5810 5810 5811 5812 5812 5813 5814 5814 5815
5761 5761 5761 5762 5762 5763 5764 5764 5765 5766 5766 5766 5766 5766 5766 5767 5767 5767 5768 5768 5769 5769 5770 5770 5770 5770 5770 5770 5770 5770 5770 5770 5770 5770 5771 5771 5771 5771 5771 5772 5772 5773 5773 5773 5774 5775 5774 5774 5776 5776 5776 5777 5778 5779 5781 5783 5783 5784 5785 5786 5787 5788 5790 5793 5794 5795 5796 5798 5799 5800 5801 5802 5803 5804 5805 5806 5806 5807 5808 5808 5809 5809 5810 5811 5811
5760 5760 5760 5760 5761 5761 5762 5763 5764 5764 5764 5764 5764 5764 5764 5764 5764 5765 5765 5766 5766 5767 5768 5768 5768 5768 5769 5768 5767 5767 5768 5768 5767 5768 5768 5768 5768 5768 5769 5769 5769 5770 5770 5771 5771 5771 5771 5771 5772 5773 5773 5774 5775 5777 5778 5778 5779 5780 5781 5783 5784 5785 5788 5790 5792 5793 5794 5795 5795 5796 5797 5798 5799 5800 5801 5802 5802 5803 5804 5804 5805 5806 5807 5807 5808
5759 5760 5760 5760 5760 5761 5761 5761 5762 5762 5762 5763 5762 5762 5762 5762 5762 5762 5763 5763 5764 5764 5766 5766 5766 5767 5767 5764 5764 5765 5765 5765 5765 5765 5766 5766 5766 5766 5766 5766 5767 5767 5767 5768 5768 5768 5769 5769 5769 5770 5771 5772 5774 5775 5775 5775 5775 5776 5778 5779 5780 5782 5784 5786 5788 5790 5791 5791 5792 5793 5794 5794 5796 5796 5797 5798 5798 5799 5800 5801 5801 5802 5803 5804 5805
5757 5758 5759 5759 5760 5760 5760 5760 5760 5760 5761 5761 5761 5761 5760 5760 5760 5760 5761 5761 5761 5762 5762 5763 5764 5764 5763 5762 5762 5763 5763 5763 5763 5763 5763 5764 5764 5764 5763 5763 5764 5764 5764 5765 5765 5766 5767 5767 5768 5769 5769 5770 5772 5772 5772 5772 5772 5773 5774 5775 5776 5777 5779 5781 5783 5785 5787 5788 5788 5789 5790 5791 5792 5793 5793 5794 5795 5795 5796 5797 5798 5799 5800 5800 5801
5755 5755 5756 5757 5758 5758 5759 5759 5759 5758 5758 5759 5759 5759 5759 5759 5758 5758 5758 5759 5759 5759 5760 5760 5760 5761 5760 5760 5760 5760 5760 5760 5760 5760 5761 5761 5761 5761 5761 5761 5761 5761 5762 5762 5762 5763 5765 5766 5766 5766 5766 5766 5767 5767 5767 5768 5769 5770 5770 5771 5771 5773 5775 5777 5779 5781 5783 5784 5785 5786 5787 5787 5788 5789 5790 5791 5791 5791 5792 5793 5794 5795 5795 5796 5797
5753 5753 5754 5754 5755 5756 5756 5757 5757 5757 5757 5757 5757 5757 5757 5757 5756 5756 5756 5756 5757 5757 5757 5757 5757 5758 5758 5758 5757 5757 5758 5758 5757 5758 5758 5758 5758 5758 5758 5758 5758 5759 5759 5759 5760 5761 5762 5762 5762 5762 5762 5762 5763 5762 5763 5764 5765 5766 5767 5768 5768 5770 5772 5773 5774 5776 5779 5781 5781 5781 5782 5783 5784 5785 5786 5787 5787 5788 5789 5789 5789 5791 5791 5792 5794
5751 5752 5752 5752 5753 5753 5754 5755 5755 5755 5755 5755 5755 5755 5755 5754 5754 5754 5754 5754 5754 5755 5755 5755 5755 5755 5756 5756 5756 5755 5755 5755 5755 5755 5755 5755 5755 5755 5755 5755 5756 5756 5756 5757 5757 5758 5758 5758 5759 5759 5759 5759 5759 5759 5760 5761 5762 5763 5764 5765 5765 5767 5769 5770 5771 5772 5774 5775 5774 5774 5776 5778 5779 5780 5781 5783 5784 5785 5786 5785 5785 5788 5789 5789 5791
5750 5750 5751 5751 5751 5751 5752 5752 5753 5753 5753 5753 5753 5753 5753 5752 5752 5752 5752 5752 5752 5753 5753 5753 5753 5753 5753 5753 5753 5753 5753 5753 5753 5753 5753 5753 5753 5753 5753 5753 5754 5753 5753 5754 5755 5755 5755 5755 5755 5755 5755 5756 5757 5757 5757 5758 5759 5760 5761 5763 5763 5763 5765 5767 5768 5768 5769 5770 5770 5772 5774 5774 5775 5777 5777 5778 5779 5781 5781 5781 5782 5784 5784 5785 5786
5749 5749 5749 5749 5749 5750 5750 5750 5750 5751 5751 5751 5751 5751 5751 5751 5751 5750 5750 5750 5750 5750 5751 5751 5751 5751 5751 5751 5751 5752 5752 5752 5751 5751 5751 5751 5751 5751 5751 5751 5751 5751 5751 5751 5752 5752 5752 5752 5752 5752 5752 5753 5754 5754 5754 5755 5756 5757 5758 5760 5760 5760 5761 5762 5763 5763 5765 5766 5768 5771 5772 5770 5771 5772 5772 5773 5775 5776 5777 5778 5779 5779 5781 5781 5782
5747 5747 5747 5747 5747 5748 5748 5748 5748 5748 5749 5749 5749 5749 5749 5749 5749 5749 5749 5748 5748 5748 5749 5749 5749 5749 5749 5749 5749 5749 5750 5749 5749 5749 5749 5749 5748 5748 5748 5748 5748 5749 5748 5748 5748 5749 5749 5749 5749 5749 5749 5750 5751 5751 5752 5752 5753 5753 5755 5756 5757 5758 5758 5758 5759 5759 5761 5763 5764 5766 5767 5767 5767 5767 5767 5769 5770 5772 5772 5774 5774 5776 5778 5778 5777
5745 5745 5745 5745 5746 5746 5746 5746 5747 5747 5747 5747 5747 5747 5748 5748 5748 5748 5748 5747 5747 5747 5747 5747 5747 5747 5747 5747 5747 5747 5747 5747 5747 5747 5747 5746 5746 5746 5746 5745 5745 5746 5746 5746 5746 5746 5746 5746 5746 5746 5747 5747 5748 5749 5749 5749 5750 5750 5752 5752 5753 5754 5754 5755 5755 5756 5757 5759 5760 5761 5762 5763 5763 5763 5763 5764 5765 5767 5769 5770 5770 5772 5773 5774 5774
5743 5743 5743 5743 5743 5744 5744 5745 5745 5745 5745 5746 5746 5746 5746 5746 5747 5747 5747 5746 5746 5746 5746 5746 5745 5745 5745 5745 5745 5745 5745 5745 5745 5745 5745 5745 5744 5744 5743 5743 5743 5743 5743 5743 5743 5743 5743 5743 5744 5744 5744 5745 5745 5746 5746 5746 5747 5748 5749 5749 5749 5750 5750 5751 5752 5752 5753 5755 5756 5757 5758 5758 5759 5759 5760 5760 5760 5762 5764 5766 5767 5767 5768 5769 5770
5741 5741 5742 5742 5742 5742 5742 5743 5743 5744 5744 5744 5745 5745 5745 5745 5745 5746 5746 5745 5745 5745 5745 5745 5744 5744 5744 5744 5744 5744 5744 5744 5744 5744 5743 5743 5743 5742 5742 5742 5741 5741 5741 5741 5741 5741 5742 5742 5742 5742 5742 5742 5743 5743 5743 5744 5744 5745 5746 5746 5747 5747 5747 5747 5748 5748 5749 5750 5751 5752 5753 5752 5753 5753 5755 5755 5756 5757 5759 5761 5762 5763 5764 5765 5765
5740 5740 5740 5740 5740 5740 5741 5741 5742 5742 5742 5743 5743 5743 5744 5744 5744 5745 5745 5745 5745 5744 5744 5744 5744 5743 5743 5743 5743 5743 5743 5743 5743 5743 5742 5742 5742 5741 5741 5741 5740 5740 5740 5740 5740 5740 5740 5740 5740 5740 5740 5741 5741 5741 5741 5741 5742 5743 5743 5744 5744 5744 5745 5745 5745 5745 5745 5746 5746 5747 5748 5747 5747 5748 5749 5750 5751 5752 5753 5755 5757 5758 5759 5760 5760
5738 5738 5738 5738 5739 5739 5739 5740 5740 5741 5741 5741 5741 5742 5742 5742 5742 5743 5743 5743 5744 5744 5743 5743 5743 5743 5742 5742 5742 5742 5742 5742 5742 5742 5741 5741 5741 5741 5740 5740 5740 5739 5739 5739 5739 5739 5739 5739 5739 5739 5739 5739 5739 5739 5740 5740 5740 5740 5741 5741 5742 5742 5742 5742 5742 5742 5742 5742 5742 5743 5743 5743 5743 5743 5743 5744 5746 5747 5748 5749 5751 5752 5753 5754 5756
5737 5737 5737 5737 5737 5737 5738 5738 5739 5739 5739 5740 5740 5740 5740 5740 5740 5740 5741 5741 5741 5742 5742 5742 5741 5741 5741 5741 5741 5740 5740 5741 5740 5740 5740 5740 5740 5740 5740 5739 5739 5739 5739 5739 5738 5738 5738 5738 5738 5738 5738 5738 5738 5738 5738 5738 5738 5738 5739 5739 5739 5739 5739 5739 5739 5739 5739 5739 5739 5739 5739 5739 5739 5739 5739 5740 5740 5742 5743 5744 5745 5747 5748 5749 5750
5735 5735 5735 5736 5736 5736 5736 5737 5737 5737 5738 5738 5738 5739 5739 5739 5739 5739 5739 5739 5739 5739 5739 5740 5740 5740 5740 5739 5739 5739 5739 5739 5739 5739 5739 5739 5739 5738 5738 5738 5738 5738 5738 5738 5738 5738 5738 5738 5737 5737 5737 5737 5737 5737 5737 5737 5737 5737 5737 5737 5737 5737 5737 5737 5737 5737 5736 5736 5736 5736 5736 5736 5735 5735 5735 5735 5736 5737 5738 5739 5740 5741 5743 5744 5745
5733 5733 5733 5734 5734 5734 5735 5735 5735 5736 5736 5736 5737 5737 5737 5737 5737 5737 5738 5738 5737 5737 5737 5738 5738 5738 5738 5738 5738 5738 5738 5738 5738 5738 5738 5737 5737 5737 5737 5737 5737 5737 5737 5737 5737 5737 5737 5737 5737 5736 5736 5736 5736 5736 5736 5736 5736 5736 5735 5735 5735 5735 5735 5735 5735 5734 5734 5734 5734 5733 5733 5733 5733 5732 5732 5732 5732 5733 5733 5734 5735 5736 5737 5738 5740
5729 5730 5730 5731 5731 5732 5732 5733 5733 5734 5734 5734 5734 5734 5735 5735 5735 5735 5736 5735 5736 5736 5736 5736 5736 5736 5736 5736 5736 5736 5736 5736 5736 5736 5736 5735 5735 5735 5735 5735 5735 5735 5735 5735 5735 5735 5735 5735 5735 5735 5735 5735 5735 5735 5734 5734 5734 5734 5734 5733 5733 5733 5732 5732 5732 5732 5732 5732 5732 5731 5731 5731 5731 5730 5730 5730 5729 5729 5729 5730 5730 5731 5733 5734 5736
5725 5726 5727 5728 5728 5729 5729 5730 5731 5731 5731 5732 5732 5732 5733 5733 5733 5734 5734 5734 5734 5734 5734 5735 5735 5735 5735 5734 5735 5734 5734 5734 5734 5734 5734 5734 5734 5733 5733 5733 5733 5732 5732 5732 5732 5732 5732 5732 5733 5733 5732 5732 5733 5733 5733 5732 5732 5732 5732 5732 5731 5731 5730 5730 5730 5729 5730 5730 5729 5729 5729 5728 5728 5728 5728 5727 5727 5727 5727 5727 5727 5728 5729 5730 5732
5722 5722 5724 5725 5725 5726 5727 5727 5727 5728 5729 5729 5729 5730 5730 5731 5731 5731 5732 5732 5732 5732 5733 5733 5733 5733 5733 5733 5732 5732 5732 5732 5732 5732 5732 5732 5732 5732 5731 5731 5731 5730 5730 5729 5729 5729 5729 5729 5729 5730 5730 5730 5730 5730 5730 5730 5729 5729 5729 5729 5728 5728 5728 5727 5727 5727 5727 5727 5727 5726 5726 5726 5725 5725 5725 5725 5725 5725 5725 5725 5725 5725 5726 5727 5728
5720 5720 5721 5722 5722 5723 5723 5724 5724 5725 5725 5726 5727 5727 5728 5728 5729 5729 5730 5730 5730 5730 5730 5730 5730 5731 5731 5731 5730 5730 5730 5730 5730 5730 5730 5730 5729 5729 5729 5729 5728 5728 5727 5727 5726 5726 5726 5726 5726 5726 5726 5726 5727 5727 5727 5726 5726 5726 5726 5725 5725 5725 5724 5724 5724 5724 5724 5724 5724 5724 5723 5723 5723 5722 5722 5722 5721 5721 5722 5722 5722 5722 5723 5724 5725
5718 5718 5718 5718 5719 5720 5720 5720 5721 5721 5722 5722 5723 5724 5724 5725 5725 5726 5726 5727 5727 5727 5727 5727 5726 5727 5727 5728 5728 5728 5727 5727 5728 5728 5727 5727 5727 5726 5726 5726 5726 5725 5725 5725 5724 5724 5723 5723 5723 5722 5722 5723 5723 5723 5724 5724 5723 5722 5722 5721 5721 5721 5721 5720 5720 5720 5720 5720 5720 5720 5720 5720 5719 5719 5719 5719 5718 5718 5718 5719 5719 5719 5719 5720 5721
5714 5715 5716 5716 5716 5717 5717 5717 5717 5717 5717 5718 5719 5720 5720 5721 5721 5722 5722 5723 5723 5724 5724 5724 5724 5724 5724 5725 5725 5725 5725 5724 5724 5724 5724 5724 5723 5723 5723 5723 5722 5722 5722 5721 5721 5721 5720 5720 5720 5719 5719 5719 5719 5720 5720 5720 5720 5720 5719 5718 5716 5716 5716 5716 5715 5715 5715 5715 5715 5715 5715 5715 5715 5715 5715 5715 5715 5715 5715 5715 5715 5715 5715 5716 5716
5711 5712 5713 5713 5713 5714 5714 5714 5713 5713 5714 5715 5716 5717 5717 5717 5718 5718 5718 5719 5719 5720 5721 5721 5721 5721 5721 5721 5721 5721 5721 5721 5721 5720 5720 5720 5719 5719 5719 5719 5719 5718 5718 5717 5717 5717 5717 5717 5717 5716 5716 5715 5716 5716 5715 5716 5716 5716 5716 5715 5714 5712 5711 5711 5711 5710 5710 5711 5710 5710 5710 5710 5710 5710 5710 5710 5710 5710 5710 5711 5711 5711 5711 5711 5711
5707 5708 5709 5709 5709 5709 5710 5710 5710 5710 5711 5712 5713 5714 5714 5714 5714 5714 5714 5715 5715 5716 5716 5716 5717 5717 5717 5717 5717 5717 5717 5716 5716 5716 5716 5715 5715 5715 5715 5715 5714 5714 5713 5713 5713 5713 5713 5713 5712 5712 5711 5711 5711 5711 5711 5711 5711 5711 5711 5711 5711 5710 5709 5707 5706 5705 5705 5706 5706 5705 5704 5704 5705 5705 5704 5704 5704 5704 5705 5705 5706 5706 5706 5706 5706
5702 5702 5703 5703 5703 5703 5704 5705 5706 5707 5708 5709 5710 5710 5710 5710 5710 5710 5710 5711 5711 5712 5711 5711 5712 5712 5712 5712 5712 5712 5712 5712 5712 5711 5711 5711 5710 5710 5710 5710 5709 5708 5708 5708 5708 5708 5708 5708 5707 5707 5706 5706 5705 5706 5706 5706 5706 5706 5706 5705 5705 5705 5705 5704 5702 5700 5699 5700 5701 5701 5699 5698 5699 5699 5699 5699 5699 5699 5699 5700 5700 5700 5700 5700 5700
5699 5699 5698 5697 5698 5698 5699 5700 5701 5703 5704 5704 5705 5705 5705 5706 5706 5706 5705 5705 5706 5706 5706 5706 5706 5706 5706 5706 5706 5706 5707 5707 5706 5706 5706 5705 5704 5704 5704 5704 5703 5702 5702 5702 5702 5702 5702 5702 5702 5701 5701 5701 5700 5700 5700 5700 5700 5699 5699 5699 5699 5699 5699 5699 5698 5696 5693 5693 5695 5697 5695 5693 5693 5694 5693 5693 5692 5692 5693 5694 5694 5695 5694 5694 5694
5695 5695 5693 5693 5694 5694 5695 5695 5696 5698 5699 5699 5699 5700 5700 5700 5700 5700 5700 5700 5700 5700 5700 5700 5700 5700 5699 5699 5700 5700 5700 5700 5700 5700 5700 5699 5697 5697 5698 5698 5697 5696 5696 5696 5696 5696 5696 5696 5696 5695 5695 5695 5694 5693 5693 5693 5693 5692 5692 5692 5692 5692 5692 5692 5693 5692 5688 5686 5687 5690 5691 5688 5687 5688 5688 5686 5686 5686 5687 5687 5687 5688 5688 5688 5688
5689 5689 5688 5688 5690 5690 5690 5691 5691 5692 5693 5693 5693 5693 5693 5693 5693 5694 5694 5694 5694 5694 5693 5693 5693 5693 5692 5693 5693 5693 5693 5693 5693 5693 5693 5692 5690 5690 5691 5691 5690 5690 5690 5690 5690 5690 5689 5689 5689 5689 5689 5689 5688 5687 5686 5686 5685 5685 5685 5685 5684 5684 5684 5684 5685 5685 5682 5680 5679 5682 5684 5683 5680 5681 5681 5680 5679 5680 5681 5681 5680 5680 5681 5681 5681
5684 5684 5683 5684 5685 5685 5685 5685 5685 5686 5686 5686 5687 5687 5687 5687 5687 5688 5688 5688 5688 5688 5688 5687 5687 5686 5686 5686 5686 5686 5686 5686 5686 5686 5686 5685 5684 5683 5683 5683 5684 5684 5684 5684 5683 5683 5682 5682 5682 5682 5682 5681 5680 5680 5679 5678 5678 5678 5678 5678 5677 5676 5676 5676 5676 5675 5674 5673 5672 5673 5676 5675 5673 5674 5674 5672 5672 5673 5674 5674 5674 5673 5674 5674 5674
5678 5678 5678 5678 5678 5679 5679 5679 5680 5680 5680 5680 5681 5681 5681 5681 5681 5682 5682 5682 5682 5682 5681 5681 5681 5680 5680 5680 5680 5680 5680 5680 5679 5679 5678 5678 5677 5675 5675 5676 5677 5677 5677 5677 5676 5675 5675 5675 5675 5674 5674 5673 5672 5672 5671 5670 5670 5670 5670 5670 5669 5669 5669 5669 5668 5667 5665 5665 5664 5665 5668 5668 5666 5667 5667 5665 5664 5665 5665 5666 5666 5666 5666 5667 5667
5673 5672 5672 5672 5672 5673 5673 5673 5674 5674 5674 5674 5675 5675 5675 5675 5675 5675 5675 5675 5675 5675 5675 5675 5675 5674 5674 5674 5673 5673 5673 5673 5673 5672 5672 5671 5670 5669 5669 5669 5669 5669 5669 5669 5668 5668 5667 5667 5667 5666 5665 5664 5663 5663 5663 5662 5662 5662 5661 5661 5660 5660 5661 5661 5661 5659 5657 5656 5654 5654 5657 5659 5658 5659 5659 5657 5657 5657 5657 5657 5658 5658 5659 5659 5659
5666 5667 5667 5667 5667 5668 5668 5668 5669 5669 5669 5669 5668 5668 5668 5668 5669 5669 5669 5669 5669 5669 5668 5669 5668 5668 5668 5667 5667 5667 5666 5666 5666 5666 5665 5664 5663 5662 5662 5661 5661 5661 5661 5660 5660 5660 5659 5659 5658 5657 5656 5655 5655 5655 5654 5654 5654 5653 5653 5652 5651 5651 5651 5652 5652 5652 5650 5649 5646 5645 5646 5649 5649 5649 5650 5649 5649 5650 5649 5648 5648 5649 5650 5650 5651
5659 5659 5660 5661 5661 5662 5662 5662 5663 5663 5662 5662 5662 5662 5661 5662 5662 5662 5662 5662 5662 5662 5662 5662 5662 5662 5662 5661 5660 5660 5659 5659 5659 5658 5658 5657 5656 5655 5654 5654 5653 5653 5652 5652 5652 5651 5651 5650 5649 5649 5648 5647 5646 5646 5646 5645 5644 5644 5643 5643 5642 5642 5642 5642 5642 5642 5642 5641 5638 5636 5637 5639 5639 5639 5640 5640 5641 5641 5641 5640 5640 5640 5641 5642 5643
5652 5652 5653 5654 5654 5655 5655 5655 5655 5655 5655 5655 5655 5655 5655 5655 5656 5656 5656 5656 5656 5655 5655 5655 5655 5655 5654 5654 5654 5653 5652 5652 5651 5651 5650 5649 5648 5647 5646 5646 5645 5645 5644 5644 5643 5643 5642 5641 5640 5640 5639 5638 5638 5638 5637 5636 5635 5634 5633 5633 5632 5632 5632 5632 5632 5632 5633 5633 5630 5627 5629 5630 5629 5629 5629 5630 5631 5632 5631 5631 5631 5631 5632 5633 5634